Location: Marsån
(66.4167°N, 22.2833°E)
Time: 08:45:23
(UTC+00:00)

CZ-2C R/B - Pass Details

Date: 24 February 2024
Orbit: 783 x 869 km, 98.3° (Epoch: 20 April)

Event Time Altitude Azimuth Distance (km) Brightness Sun altitude
Exits shadow 22:42:08 40° 50° (NE) 1,247 3.7 -33.0°
Maximum altitude 22:42:14 40° 47° (NE) 1,247 3.7 -33.0°
Drops below altitude 10° 22:47:26 10° 340° (NNW) 2,525 5.9 -33.0°
Sets 22:49:57 0° 333° (NNW) 3,471 6.7 -32.9°
